Location: Gökben Yaylas?
(36.8988°N, 29.6291°E)
Time: 15:58:19
(UTC+00:00)

Cosmos 2219 Rocket - Pass Details

Date: 15 May 2026
Orbit: 825 x 846 km, 71.0° (Epoch: 10 June)

Event Time Altitude Azimuth Distance (km) Brightness Sun altitude
Rises 20:19:04 0° 339° (NNW) 3,403 6.6 -29.4°
Reaches altitude 10° 20:21:31 10° 341° (NNW) 2,467 5.5 -29.6°
Enters shadow 20:26:31 68° 9° (N) 910 2.4 -30.1°
